Denver, CO

3:48 PM MDT on October 17, 2017 (GMT -0600)
Front Range

Weather History for KFTG - September, 2012

Change the Weather History Date:

Wednesday, September 12, 2012

  Actual Average (KBKF) Record (KBKF)
Temperature  
Mean Temperature 56 °F -  
Max Temperature 62 °F 76 °F 91 °F (2004)
Min Temperature 50 °F 49 °F 32 °F (2014)
Degree Days  
Heating Degree Days 9    
Growing Degree Days 6 (Base 50)    
Moisture  
Dew Point 50 °F    
Average Humidity 88    
Maximum Humidity 94    
Minimum Humidity 67    
Precipitation  
Precipitation 0.00 in - - ()
Sea Level Pressure  
Sea Level Pressure 30.29 in    
Wind  
Wind Speed 6 mph (East)    
Max Wind Speed 13 mph    
Max Gust Speed -    
Visibility 8 miles    
Events Rain    
Averages and records for this station are not official NWS values.
T = Trace of Precipitation, MM = Missing Value Source: NWS Daily Summary

Daily Weather History Graph

Daily Weather History Graph

Search for Another Location

Airport or City:

Trip Planner

Search our weather history database for the weather conditions in past years. The results will help you decide how hot, cold, wet, or windy it might be!

Date:

Astronomy

Sep. 12, 2012 Rise Set
Actual Time 6:36 AM MDT 7:10 PM MDT
Civil Twilight 6:09 AM MDT 7:37 PM MDT
Nautical Twilight 5:37 AM MDT 8:09 PM MDT
Astronomical Twilight 5:04 AM MDT 8:42 PM MDT
Moon 2:56 AM MDT (9/12) 4:59 PM MDT (9/12)
Length of Visible Light 13h 28m
Length of Day
12h 33m
Waning Crescent, 13% of the Moon is Illuminated
Sep 12
Waning Crescent
Sep 15
New
Sep 22
First Quarter
Sep 29
Full
Oct 8
Last Quarter

Hourly Weather History & Observations

Time (MDT) Temp. Dew Point Humidity Pressure Visibility Wind Dir Wind Speed Gust Speed Precip Events Conditions
12:18 AM 62.6 °F 55.4 °F 77% 30.13 in 10.0 mi NE 4.6 mph - N/A Rain Light Rain
12:37 AM 60.8 °F 57.2 °F 88% 30.14 in 10.0 mi ENE 4.6 mph - N/A   Light Drizzle
12:58 AM 60.8 °F 57.2 °F 88% 30.13 in 10.0 mi NE 5.8 mph - N/A   Overcast
1:18 AM 60.8 °F 57.2 °F 88% 30.13 in 10.0 mi NE 4.6 mph - N/A   Light Drizzle
1:38 AM 60.8 °F 57.2 °F 88% 30.14 in 10.0 mi North 4.6 mph - N/A Rain Light Rain
1:58 AM 60.8 °F 55.4 °F 82% 30.14 in 10.0 mi NE 8.1 mph - N/A   Overcast
2:18 AM 60.8 °F 55.4 °F 82% 30.15 in 10.0 mi NE 6.9 mph - N/A   Overcast
2:38 AM 60.8 °F 55.4 °F 82% 30.15 in 10.0 mi ENE 5.8 mph - N/A   Overcast
2:58 AM 60.8 °F 55.4 °F 82% 30.15 in 10.0 mi ENE 8.1 mph - N/A   Overcast
3:18 AM 60.8 °F 55.4 °F 82% 30.15 in 10.0 mi NE 6.9 mph - N/A Rain Light Rain
3:38 AM 60.8 °F 55.4 °F 82% 30.15 in 10.0 mi NE 8.1 mph - N/A Rain Light Rain
3:58 AM 59.0 °F 53.6 °F 82% 30.16 in 10.0 mi ENE 11.5 mph - N/A Rain Rain
4:18 AM 55.4 °F 48.2 °F 77% 30.16 in 10.0 mi ENE 11.5 mph - N/A   Drizzle
4:38 AM 55.4 °F 48.2 °F 77% 30.17 in 10.0 mi NE 9.2 mph - N/A Rain Light Rain
4:58 AM 55.4 °F 44.6 °F 67% 30.18 in 10.0 mi ENE 10.4 mph - N/A   Overcast
5:18 AM 55.4 °F 46.4 °F 72% 30.18 in 10.0 mi NE 9.2 mph - N/A Rain Light Rain
5:38 AM 53.6 °F 46.4 °F 77% 30.19 in 10.0 mi NE 9.2 mph - N/A Rain Rain
5:58 AM 51.8 °F 46.4 °F 82% 30.21 in 7.0 mi ENE 6.9 mph - N/A Rain Rain
6:18 AM 50.0 °F 46.4 °F 87% 30.22 in 5.0 mi ENE 9.2 mph - N/A Rain Rain
6:38 AM 50.0 °F 48.2 °F 94% 30.23 in 7.0 mi ENE 8.1 mph - N/A Rain Rain
6:58 AM 50.0 °F 48.2 °F 94% 30.24 in 10.0 mi ESE 6.9 mph - N/A Rain Rain
7:18 AM 50.0 °F 48.2 °F 94% 30.25 in 10.0 mi ESE 6.9 mph - N/A Rain Rain
7:38 AM 50.0 °F 48.2 °F 94% 30.25 in 5.0 mi ESE 9.2 mph - N/A Rain Rain
7:48 AM 50.0 °F 48.2 °F 94% 30.25 in 5.0 mi ESE 8.1 mph - N/A Rain Light Rain
7:58 AM 50.0 °F 48.2 °F 94% 30.25 in 7.0 mi ESE 6.9 mph - N/A Rain Rain
8:18 AM 50.0 °F 48.2 °F 94% 30.26 in 5.0 mi ESE 10.4 mph - N/A Rain Light Rain
8:38 AM 50.0 °F 48.2 °F 94% 30.26 in 5.0 mi SE 10.4 mph - N/A Rain Rain
8:55 AM 50.0 °F 46.4 °F 87% 30.28 in 5.0 mi ESE 10.4 mph - N/A Rain Rain
8:58 AM 50.0 °F 46.4 °F 87% 30.28 in 5.0 mi SE 10.4 mph - N/A Rain Rain
9:18 AM 50.0 °F 46.4 °F 87% 30.29 in 4.0 mi Calm Calm - N/A Rain Rain
9:29 AM 50.0 °F 48.2 °F 94% 30.30 in 2.5 mi Calm Calm - N/A Rain Rain
9:38 AM 50.0 °F 46.4 °F 87% 30.30 in 3.0 mi Calm Calm - N/A Rain Rain
9:58 AM 50.0 °F 46.4 °F 87% 30.31 in 3.0 mi Calm Calm - N/A Rain Rain
10:18 AM 50.0 °F 46.4 °F 87% 30.32 in 4.0 mi Calm Calm - N/A Rain Rain
10:38 AM 50.0 °F 46.4 °F 87% 30.33 in 3.0 mi Calm Calm - N/A Rain Rain
10:57 AM 50.0 °F 46.4 °F 87% 30.33 in 1.5 mi Calm Calm - N/A Rain Rain
11:18 AM 50.0 °F 48.2 °F 94% 30.33 in 2.0 mi Calm Calm - N/A Rain Heavy Rain
11:37 AM 50.0 °F 48.2 °F 94% 30.33 in 2.5 mi Calm Calm - N/A Rain Rain
11:50 AM 50.0 °F 48.2 °F 94% 30.33 in 2.0 mi Calm Calm - N/A Rain Rain
11:57 AM 50.0 °F 48.2 °F 94% 30.34 in 2.5 mi Calm Calm - N/A Rain Rain
12:17 PM 51.8 °F 48.2 °F 88% 30.34 in 2.5 mi Calm Calm - N/A Rain Rain
12:38 PM 51.8 °F 50.0 °F 94% 30.35 in 7.0 mi East 3.5 mph - N/A Rain Rain
12:50 PM 51.8 °F 50.0 °F 94% 30.34 in 3.0 mi Calm Calm - N/A Rain Rain
12:58 PM 51.8 °F 50.0 °F 94% 30.34 in 7.0 mi East 3.5 mph - N/A Rain Rain
1:18 PM 51.8 °F 50.0 °F 94% 30.34 in 7.0 mi Calm Calm - N/A Rain Light Rain
1:38 PM 51.8 °F 50.0 °F 94% 30.33 in 10.0 mi East 4.6 mph - N/A Rain Light Rain
1:58 PM 51.8 °F 50.0 °F 94% 30.33 in 10.0 mi Calm Calm - N/A Rain Light Rain
2:18 PM 53.6 °F 50.0 °F 88% 30.33 in 10.0 mi East 3.5 mph - N/A   Light Drizzle
2:38 PM 53.6 °F 50.0 °F 88% 30.32 in 10.0 mi East 5.8 mph - N/A   Overcast
2:55 PM 53.6 °F 50.0 °F 88% 30.32 in 10.0 mi East 8.1 mph - N/A   Overcast
2:58 PM 53.6 °F 50.0 °F 88% 30.32 in 10.0 mi East 8.1 mph - N/A   Overcast
3:18 PM 53.6 °F 50.0 °F 88% 30.32 in 10.0 mi ESE 4.6 mph - N/A   Overcast
3:47 PM 55.4 °F 50.0 °F 82% 30.33 in 10.0 mi East 4.6 mph - N/A   Overcast
3:58 PM 53.6 °F 50.0 °F 88% 30.33 in 10.0 mi East 5.8 mph - N/A   Overcast
4:18 PM 53.6 °F 50.0 °F 88% 30.32 in 10.0 mi ESE 6.9 mph - N/A   Overcast
4:38 PM 53.6 °F 50.0 °F 88% 30.32 in 10.0 mi East 9.2 mph - N/A   Overcast
4:58 PM 53.6 °F 50.0 °F 88% 30.32 in 10.0 mi East 9.2 mph - N/A   Overcast
5:18 PM 53.6 °F 50.0 °F 88% 30.32 in 10.0 mi SE 8.1 mph - N/A   Overcast
5:38 PM 53.6 °F 50.0 °F 88% 30.32 in 10.0 mi ESE 12.7 mph - N/A   Overcast
5:59 PM 53.6 °F 50.0 °F 88% 30.33 in 10.0 mi ESE 9.2 mph - N/A   Overcast
6:39 PM 53.6 °F 50.0 °F 88% 30.33 in 10.0 mi ESE 11.5 mph - N/A   Overcast
6:59 PM 53.6 °F 50.0 °F 88% 30.34 in 10.0 mi ESE 11.5 mph - N/A   Overcast
7:19 PM 53.6 °F 50.0 °F 88% 30.35 in 10.0 mi ESE 12.7 mph - N/A   Overcast
7:39 PM 53.6 °F 50.0 °F 88% 30.35 in 10.0 mi ESE 11.5 mph - N/A   Overcast
7:59 PM 53.6 °F 50.0 °F 88% 30.36 in 10.0 mi ESE 8.1 mph - N/A   Overcast
8:19 PM 53.6 °F 50.0 °F 88% 30.38 in 10.0 mi East 8.1 mph - N/A   Overcast
8:58 PM 53.6 °F 50.0 °F 88% 30.39 in 10.0 mi East 6.9 mph - N/A   Overcast
9:19 PM 53.6 °F 50.0 °F 88% 30.40 in 10.0 mi ESE 9.2 mph - N/A   Overcast
9:38 PM 53.6 °F 50.0 °F 88% 30.40 in 10.0 mi ESE 8.1 mph - N/A   Overcast
9:57 PM 53.6 °F 50.0 °F 88% 30.40 in 10.0 mi ESE 9.2 mph - N/A   Overcast
10:18 PM 53.6 °F 50.0 °F 88% 30.41 in 10.0 mi ESE 8.1 mph - N/A   Overcast
10:38 PM 53.6 °F 50.0 °F 88% 30.42 in 10.0 mi East 9.2 mph - N/A   Overcast
10:58 PM 53.6 °F 50.0 °F 88% 30.42 in 10.0 mi ESE 8.1 mph - N/A   Overcast
11:18 PM 51.8 °F 50.0 °F 94% 30.42 in 10.0 mi ESE 8.1 mph - N/A   Overcast
11:38 PM 51.8 °F 50.0 °F 94% 30.42 in 10.0 mi ESE 5.8 mph - N/A   Overcast
11:58 PM 51.8 °F 50.0 °F 94% 30.43 in 7.0 mi ESE 5.8 mph - N/A   Overcast